Regional Weather Roundup
Issued by NWS

Home | Current Version | Previous Version | Text Only | Print | Product List | Glossary Off
Versions: 1 2 3 4 5 6 7 8 9 10 11 12 13 14 15 16 17 18 19 20 21 22 23 24 25 26 27 28 29 30 31 32 33 34 35 36 37 38 39 40 41 42 43 44 45 46 47 48 49 50

000
ASUS43 KOAX 272002
RWRNE

WEATHER ROUNDUP FOR NEBRASKA
NATIONAL WEATHER SERVICE OMAHA NE
300 PM CDT THU APR 27 2017

NOTES: SATELLITE DATA IS BEING USED TO AUGMENT CLOUD COVER ABOVE
       12000 FEET.
       "FAIR" INDICATES FEW OR NO CLOUDS BELOW 12,000 FEET WITH NO
       SIGNIFICANT WEATHER AND/OR OBSTRUCTIONS TO VISIBILITY.

  * THESE STATIONS DO NOT REPORT WEATHER SUCH AS RAIN...SNOW OR FOG.

NEZ001>004-019>022-054>056-272100-
NEBRASKA PANHANDLE

CITY           SKY/WX    TMP DP  RH WIND       PRES   REMARKS
SCOTTSBLUFF    CLOUDY    46  42  86 E6        29.55F
ALLIANCE       CLOUDY    48  38  68 SE16      29.54F
CHADRON        CLOUDY    50  35  56 E13       29.56F
KIMBALL        LGT RAIN  45  41  86 NE7       29.55S
SIDNEY         CLOUDY    51  39  63 E13       29.54S
$$

NEZ057>060-069>072-079>082-272100-
SOUTHWEST NEBRASKA

CITY           SKY/WX    TMP DP  RH WIND       PRES   REMARKS
NORTH PLATTE   CLOUDY    54  37  52 E18G26    29.58F
IMPERIAL       MOSUNNY   53  35  50 SE23G32   29.54F
LEXINGTON      CLOUDY    50  37  59 SE12      29.64S
MCCOOK         PTSUNNY   53  36  52 E20G25    29.58F
OGALLALA       CLOUDY    55  37  49 SE14G21   29.56F
$$

NEZ005>010-023>029-035>040-094-272100-
NORTH CENTRAL NEBRASKA

CITY           SKY/WX    TMP DP  RH WIND       PRES   REMARKS
VALENTINE      MOSUNNY   54  29  38 E12       29.63F
AINSWORTH      MOSUNNY   51  34  52 E7        29.65S
BROKEN BOW     CLOUDY    50  34  54 S10       29.65S
O`NEILL        SUNNY     49  31  51 CALM      29.69S
ORD            CLOUDY    51  34  52 SE7       29.66F
THEDFORD       LGT RAIN  49  37  63 SE8       29.64S
$$

NEZ041-046>049-061>064-073>077-083>087-272100-
SOUTH CENTRAL NEBRASKA

CITY           SKY/WX    TMP DP  RH WIND       PRES   REMARKS
GRAND ISLAND   CLOUDY    56  31  38 E8        29.68F
AURORA         CLOUDY    56  30  37 SE3       29.68F
HASTINGS       CLOUDY    54  32  43 VRB7      29.69F
HEBRON         CLOUDY    57  32  38 SE5       29.70S
HOLDREGE       CLOUDY    53  34  49 E13       29.63F
KEARNEY *      CLOUDY    48  37  66 SE10      29.67F
$$

NEZ011>018-030>034-042>045-272100-
NORTHEAST NEBRASKA

CITY           SKY/WX    TMP DP  RH WIND       PRES   REMARKS
NORFOLK        MOSUNNY   48  33  56 CALM      29.69F
ALBION         PTSUNNY   53  33  46 CALM      29.70S
BLAIR          PTSUNNY   53  36  53 W6        29.71S
FREMONT        MOSUNNY   52  34  50 S5        29.71F
TEKAMAH        PTSUNNY   55  33  43 W13       29.70F
WAYNE          SUNNY     50  36  57 NW9       29.70S
$$

NEZ050>053-065>068-078-088>093-272100-
SOUTHEAST NEBRASKA

CITY           SKY/WX    TMP DP  RH WIND       PRES   REMARKS
LINCOLN        MOSUNNY   58  32  37 W9        29.72S
OMAHA EPPLEY   MOSUNNY   53  35  50 VRB5      29.72S
BEATRICE       CLOUDY    56  34  44 CALM      29.71S
FALLS CITY     MOSUNNY   58  37  45 W9        29.70F
NEBRASKA CITY  SUNNY     55  26  33 NW5       29.71F
PLATTSMOUTH    SUNNY     54  29  38 W9        29.71S
$$

NEZ044-045-051>053-067-272100-
OMAHA AREA

CITY           SKY/WX    TMP DP  RH WIND       PRES   REMARKS
OMAHA EPPLEY   MOSUNNY   53  35  50 VRB5      29.72S
BLAIR          PTSUNNY   53  36  53 W6        29.71S
FREMONT        MOSUNNY   52  34  50 S5        29.71F
MILLARD        SUNNY     55  39  55 W7        29.71S
OFFUTT AFB     SUNNY     53  36  52 W5        29.71F
PLATTSMOUTH    SUNNY     54  29  38 W9        29.71S
WAHOO          FAIR      55  31  40 CALM      29.70F
$$



USA.gov is the U.S. government's official web portal to all federal, state and local government web resources and services.